Content
SEND FEEDBACK

Daily
Averages
Monthly
Summary
Netherlands

MAASTRICHT, NETHERLANDS


Home > Europe > Netherlands
Elevation: 380 feet     Latitude: 50 55N     Longitude: 005 47E

WEATHER
 
SELECT A DAY
Number of Records: 301,495;   Date Range: 7/1/96 - 7/28/14
 
SHARE

PRINT THIS DATA

[ ← Previous Day ]
WEATHER ALMANAC - MAY 4, 2013
[ Next Day → ]
[ °C ]   °F
Weather ElementAverageHighLow
Temperature54.6 °F64.4 °F (2:55 pm)44.6 °F (6:55 am)
Dewpoint43.4 °F46.4 °F (2:55 pm)41 °F (8:25 am)
Humidity66.4 %93 % (6:55 am)35 % (5:00 pm)
Barometer30.07 in30.19 in (11:00 pm)30.01 in (2:55 am)
Wind Speed8.2 mph13.8 mph (3:55 pm)
Weather ElementAverage
Visibility6.9 mi
Wind DirectionWSW (246 °)

Weather ElementTotal
Precipitation---
Heating Degree Days10.5 (Base 65)
Growing Degree Days4.5 (Base 50)
Averaged from 55 records on May 4, 2013
WEATHER CONDITIONS BREAKOUT
WIND DIRECTION BREAKOUT
WEATHER BY HOUR - MAY 4, 2013
[ °C ]   °F
Local TimeTemperatureDewpointHumidityBarometerVisibilityWind DirectionWind SpeedGust SpeedPrecipitationEventsConditions
12:55 AM51.8 °F44.6 °F76 %30.04 in6.2 miNNW (330°)5.8 mph
1:25 AM51.8 °F44.6 °F76 %30.04 in6.2 miWNW (290°)3.5 mph
1:55 AM50.0 °F44.6 °F82 %30.04 in6.2 miWest (270°)3.5 mph
2:00 AM50.0 °F44.0 °F74 %30.04 in6.0 miWest (270°)4.5 mphPartly Cloudy
2:25 AM46.4 °F42.8 °F87 %30.04 in5.6 miWest (280°)3.5 mph
2:55 AM48.2 °F44.6 °F87 %30.01 in5.0 miWSW (250°)4.6 mph
3:25 AM48.2 °F42.8 °F82 %30.04 in5.0 miWest (270°)5.8 mphPartly Cloudy
3:55 AM48.2 °F42.8 °F82 %30.04 in5.0 miWest (270°)5.8 mph
4:25 AM48.2 °F42.8 °F82 %30.04 in5.0 miWest (270°)5.8 mphPartly Cloudy
4:55 AM46.4 °F42.8 °F87 %30.04 in5.0 miWSW (250°)3.5 mphOvercast
5:00 AM46.0 °F44.0 °F88 %30.05 in6.0 miWSW (250°)4.5 mphMist
5:25 AM46.4 °F42.8 °F87 %30.04 in3.7 miSW (220°)5.8 mphOvercast
5:55 AM46.4 °F42.8 °F87 %30.04 in3.1 miSW (220°)6.9 mphMostly Cloudy
6:25 AM46.4 °F42.8 °F87 %30.04 in3.1 miSSW (210°)8.1 mphMostly Cloudy
6:55 AM44.6 °F42.8 °F93 %30.04 in3.7 miSW (220°)8.1 mphScattered Clouds
7:25 AM46.4 °F42.8 °F87 %30.04 in3.7 miSW (220°)8.1 mphPartly Cloudy
7:55 AM48.2 °F42.8 °F82 %30.06 in4.3 miSW (220°)8.1 mphScattered Clouds
8:00 AM48.0 °F42.0 °F72 %30.08 in5.0 miSW (220°)8.9 mphMist
8:25 AM48.2 °F41.0 °F76 %30.06 in5.6 miSW (230°)8.1 mphScattered Clouds
8:55 AM50.0 °F42.8 °F76 %30.06 in5.6 miWSW (240°)6.9 mphMostly Cloudy
9:25 AM51.8 °F42.8 °F71 %30.06 in6.2 miWSW (240°)6.9 mph
9:55 AM53.6 °F42.8 °F67 %30.06 in6.2 miWest (260°)6.9 mph
10:25 AM55.4 °F42.8 °F63 %30.06 in6.2 miWSW (250°)4.6 mph
10:55 AM57.2 °F42.8 °F59 %30.06 in6.2 miWSW (240°)6.9 mph
11:00 AM57.0 °F43.0 °F48 %30.10 in12.0 miWSW (240°)6.7 mph
11:25 AM57.2 °F42.8 °F59 %30.06 in6.2 miSW (230°)8.1 mph
11:55 AM59.0 °F44.6 °F59 %30.06 in6.2 miWSW (240°)8.1 mph
12:25 PM59.0 °F44.6 °F59 %30.06 in6.2 miSW (230°)9.2 mph
12:55 PM60.8 °F44.6 °F55 %30.06 in6.2 miSW (220°)10.4 mph
1:25 PM60.8 °F44.6 °F55 %30.06 in6.2 miWSW (240°)10.4 mph
1:55 PM62.6 °F44.6 °F52 %30.06 in6.2 miWSW (240°)10.4 mph
2:00 PM62.0 °F43.0 °F39 %30.09 in14.0 miSW (220°)13.4 mphPartly Cloudy
2:25 PM62.6 °F42.8 °F48 %30.06 in6.2 miWSW (240°)9.2 mph
2:55 PM64.4 °F46.4 °F52 %30.06 in6.2 miWSW (240°)12.7 mph
3:25 PM64.4 °F42.8 °F45 %30.06 in6.2 miWSW (250°)12.7 mphPartly Cloudy
3:55 PM64.4 °F42.8 °F45 %30.06 in6.2 miWSW (240°)13.8 mph
4:25 PM64.4 °F42.8 °F45 %30.06 in6.2 miWSW (240°)11.5 mphPartly Cloudy
4:55 PM64.4 °F44.6 °F49 %30.06 in6.2 miWSW (240°)12.7 mph
5:00 PM64.0 °F43.0 °F35 %30.08 in16.0 miWSW (250°)11.2 mph
5:25 PM64.4 °F46.4 °F52 %30.06 in6.2 miWSW (250°)10.4 mphScattered Clouds
5:55 PM64.4 °F44.6 °F49 %30.06 in6.2 miWSW (250°)11.5 mphPartly Cloudy
6:25 PM62.6 °F44.6 °F52 %30.06 in6.2 miWSW (250°)10.4 mphScattered Clouds
6:55 PM62.6 °F44.6 °F52 %30.06 in6.2 miWest (260°)12.7 mph
7:25 PM60.8 °F44.6 °F55 %30.09 in6.2 miWest (260°)10.4 mph
7:55 PM57.2 °F42.8 °F59 %30.09 in6.2 miWest (260°)11.5 mph
8:00 PM56.0 °F43.0 °F51 %30.12 in22.0 miWest (270°)8.9 mphPartly Cloudy
8:25 PM55.4 °F42.8 °F63 %30.09 in6.2 miWest (270°)8.1 mph
8:55 PM55.4 °F42.8 °F63 %30.12 in6.2 miWest (260°)6.9 mph
9:25 PM53.6 °F42.8 °F67 %30.12 in6.2 miWest (260°)8.1 mph
9:55 PM53.6 °F42.8 °F67 %30.15 in6.2 miWSW (250°)5.8 mph
10:25 PM51.8 °F42.8 °F71 %30.15 in6.2 miWSW (240°)6.9 mphPartly Cloudy
10:55 PM50.0 °F42.8 °F76 %30.15 in6.2 miSW (230°)8.1 mph
11:00 PM50.0 °F42.0 °F67 %30.19 in28.0 miSW (220°)8.9 mph
11:25 PM50.0 °F42.8 °F76 %30.18 in6.2 miSW (220°)8.1 mph
11:55 PM50.0 °F42.8 °F76 %30.18 in6.2 miSW (230°)10.4 mph
Hourly data recorded from EHBK, located miles away from Maastricht, Netherlands







STORIES FROM OUR PARTNERS